Regional Weather Roundup
Issued by NWS Upton, NY

Current Version | Previous Version | Graphics & Text | Print | Product List | Glossary Off
Versions: 1 2 3 4 5 6 7 8 9 10 11 12 13 14 15 16 17 18 19 20 21 22 23 24 25 26 27 28 29 30 31 32 33 34 35 36 37 38 39 40 41 42 43 44 45 46 47 48 49 50

000
ASUS41 KOKX 290208
RWROKX

REGIONAL WEATHER ROUNDUP
NATIONAL WEATHER SERVICE NEW YORK NY
1000 PM EDT WED SEP 28 2016

NOTE: "FAIR" INDICATES FEW OR NO CLOUDS BELOW 12,000 FEET WITH NO
SIGNIFICANT WEATHER AND/OR OBSTRUCTIONS TO VISIBILITY.

NYZ071-072-176-178-NJZ106-104-290300-
NEW YORK CITY METRO AREA

CITY           SKY/WX    TMP DP  RH WIND       PRES   REMARKS
Central Park   CLOUDY    58  55  90 VRB7G16   30.27R FOG
LaGuardia APRT DRIZZLE   62  56  80 NE23G31   30.24R
Kennedy INTL   CLOUDY    60  54  80 NE20G26   30.24R
Newark/Liberty LGT RAIN  59  56  89 NE17      30.24R
Bronx Bot Gard   N/A     57  50  77 NE12      30.27R
Wall St Helipt CLOUDY    61  57  88 NE20G25   30.23R
Teterboro      DRIZZLE   60  52  74 NE12G17   30.24R
$$

NYZ177-179-078>081-290300-
LONG ISLAND NEW YORK

CITY           SKY/WX    TMP DP  RH WIND       PRES   REMARKS
Farmingdale    CLOUDY    60  54  80 NE9       30.24R
MacArthur/ISP  DRIZZLE   59  55  87 NE15      30.24R
Shirley        CLOUDY    59  54  83 NE8       30.25R
Riverhead      NOT AVBL
Westhampton    LGT RAIN  59  55  87 NE14G21   30.26R
Southampton      N/A     59  57  94 E8        30.22R
Bridgehampton    N/A     57  55  94 E5        30.10S
East Hampton   CLOUDY    58  55  90 NE10G21   30.25R
Montauk          N/A     60  57  89 NE13G21   30.26R
$$

NYZ052-065-067-290300-
HUDSON VALLEY

CITY           SKY/WX    TMP DP  RH WIND       PRES   REMARKS
White Plains   DRIZZLE   56  51  84 NE10      30.25R
Newburgh       CLOUDY    57  52  82 E17G23    30.29R
Montgomery     CLOUDY    57  52  83 NE13      30.28R
Poughkeepsie   CLOUDY    57  48  72 NE8       30.29R
Albany         CLOUDY    56  45  66 E6        30.34R
$$

NJZ001-105-106-008-010-013-015-019>022-104-290300-
NEW JERSEY

CITY           SKY/WX    TMP DP  RH WIND       PRES   REMARKS
Newark/Liberty LGT RAIN  59  56  89 NE17      30.24R
Teterboro      DRIZZLE   60  52  74 NE12G17   30.24R
Caldwell       CLOUDY    59  53  80 NE10      30.26R
Morristown     CLOUDY    59  54  82 NE12G18   30.25R
Somerville     CLOUDY    61  54  77 NE9       30.21R
Linden         NOT AVBL
Sussex         CLOUDY    58  53  84 NE9       30.27R
Abdover          N/A     58  53  84 VRB5      30.25R
Trenton        CLOUDY    61  57  87 E14G23    30.20R
Millville      RAIN      65  65 100 E14       30.13F FOG
Atlantic City  CLOUDY    65  62  90 NE17      30.16R FOG
Wrightstown    LGT RAIN  61  60  96 NE14      30.16S FOG
Toms River     LGT RAIN  62  60  93 NE12G21   30.20R
Belmar         CLOUDY    60  58  92 NE15G22   30.23R
$$

PAZ047>061-062-071-290300-
EASTERN PENNSYLVANIA

CITY           SKY/WX    TMP DP  RH WIND       PRES   REMARKS
Philadelphia   LGT RAIN  63  60  90 E15       30.16F
Allentown      CLOUDY    62  53  72 E16       30.19R
Scranton       CLOUDY    59  53  80 E8        30.20R
$$

CTZ002-004>006-009-010-012-RIZ004-006-007-MAZ004-011-015-290300-
SOUTHERN NEW ENGLAND
 IN CT

CITY           SKY/WX    TMP DP  RH WIND       PRES   REMARKS
Bradley INTL   CLOUDY    57  49  74 N10       30.32R
Hartford       CLOUDY    56  51  84 N10       30.31R
Danbury        CLOUDY    55  49  80 NE12G21   30.29R
Wtrbury/Oxford   N/A     54  46  76 NE13G20   30.29S
Bridgeport     CLOUDY    60  51  72 NE15      30.27R
Meriden        CLOUDY    58  50  75 N9        30.28S
New Haven      CLOUDY    58  51  78 NE14      30.27R
Chester        CLOUDY    57  52  82 NE6G20    30.28R
Groton         CLOUDY    60  54  80 NE14      30.26R
Wilimantic     CLOUDY    57  53  86 NE13      30.31R

 IN RI

CITY           SKY/WX    TMP DP  RH WIND       PRES   REMARKS
Providence     CLOUDY    57  55  93 NE14      30.30R
Block Island   CLOUDY    60  58  92 NE20G30   30.25R
Westerly       CLOUDY    59  53  80 NE10G18   30.27R
 IN MA

CITY           SKY/WX    TMP DP  RH WIND       PRES   REMARKS
Boston         MOCLDY    58  53  84 NE24G32   30.33R
Worcester      CLOUDY    52  48  86 NE12G18   30.33R
Westfield      CLOUDY    56  49  77 N6        30.33R
Provincetown   CLOUDY    60  57  89 NE17G28   30.29R
Nantucket      CLOUDY    60  58  92 NE17G24   30.23R
$$

ANZ330-335-338-340-345-350-353-355-290300-
COASTAL MARINE OBSERVATIONS


STATION/POSITION TIME  SKY/WX   TEMP    WIND        PRES    VSBY  WAVE
                                AIR SEA DIR/SP/G                  HT/PER
                 (UTC)          (F)     (DEG/KT/KT) (MB)    (MI)  (FT/S)
NY HARB ENTRANCE 0150            63 70   50/ 25/ 29 1021.9          8/ 8
20S FIRE ISLAND  0150            63 69   60/ 23/ 29 1021.8         10/ 8
GREAT SOUTH BAY  0130            61 68   30/ 14/ 21   N/A
23 SSW MONTAUK P 0150            63 67   50/ 23/ 29 1023.1          9/ 7
15 E BARNEGAT LI 0100               70                N/A          10/ 8
HUDSON CANYON    0050            66 68              1020.1          9/ 8
KINGS POINT      0130            60 72              1023.5
EXECUTION ROCKS  0145            62      50/ 19/ 27   N/A
CENTRAL LI SOUND 0100            60 72   60/ 17/ 21   N/A           3/ 5
EASTERN LI SOUND NOT AVBL
ROBBINS REEF     0130            60      60/ 16/ 18 1023.4
$$


>>>>>>>>>>>>>>>>>>>>>>>>>>>> KEY <<<<<<<<<<<<<<<<<<<<<<<<<<<
>                                                          <
>     SKY/WX - Sky Condition/Present Weather               <
>     TMP    - Temperature in Fahrenheit                   <
>     DP     - Dew Point in Fahrenheit                     <
>     RH     - Relative Humidity in Percent                <
>     WIND   - Direction (from) and Speed in MPH           <
>     PRES   - Mean Sea Level Pressure (inches of Hg)      <
>     WCI    - Wind Chill Index                            <
>     VSB    - VISIBILITY IN MILES                         <
>     HX     - HEAT INDEX                                  <
>     TC     - TEMPERATURE IN CELSIUS                      <
>     VRB    - VARIABLE WIND DIRECTION                     <
>                                                          <
>>>>>>>>>>>>>>>>>>>>>>>>>>>> KEY <<<<<<<<<<<<<<<<<<<<<<<<<<<




USA.gov is the U.S. government's official web portal to all federal, state and local government web resources and services.